Index of /20260430/WXO-DD/model_gdps/15km/12/018
Name Last modified Size Description
Parent Directory -
20260430T12Z_MSC_GDPS_AbsoluteVorticity_IsbL-0200_LatLon0.15_PT018H.grib2 2026-04-30 15:52 1.5M
20260430T12Z_MSC_GDPS_AbsoluteVorticity_IsbL-0250_LatLon0.15_PT018H.grib2 2026-04-30 15:52 1.3M
20260430T12Z_MSC_GDPS_AbsoluteVorticity_IsbL-0500_LatLon0.15_PT018H.grib2 2026-04-30 15:52 1.4M
20260430T12Z_MSC_GDPS_AbsoluteVorticity_IsbL-0700_LatLon0.15_PT018H.grib2 2026-04-30 15:52 1.3M
20260430T12Z_MSC_GDPS_AbsoluteVorticity_IsbL-0850_LatLon0.15_PT018H.grib2 2026-04-30 15:52 1.6M
20260430T12Z_MSC_GDPS_AirTemp-Max_AGL-2m_LatLon0.15_PT018H.grib2 2026-04-30 15:52 741K
20260430T12Z_MSC_GDPS_AirTemp-Min_AGL-2m_LatLon0.15_PT018H.grib2 2026-04-30 15:52 790K
20260430T12Z_MSC_GDPS_AirTemp_AGL-120m_LatLon0.15_PT018H.grib2 2026-04-30 15:52 905K
20260430T12Z_MSC_GDPS_AirTemp_AGL-2m_LatLon0.15_PT018H.grib2 2026-04-30 15:52 1.0M
20260430T12Z_MSC_GDPS_AirTemp_AGL-40m_LatLon0.15_PT018H.grib2 2026-04-30 15:52 808K
20260430T12Z_MSC_GDPS_AirTemp_AGL-80m_LatLon0.15_PT018H.grib2 2026-04-30 15:52 797K
20260430T12Z_MSC_GDPS_AirTemp_IsbL-0001_LatLon0.15_PT018H.grib2 2026-04-30 15:52 652K
20260430T12Z_MSC_GDPS_AirTemp_IsbL-0005_LatLon0.15_PT018H.grib2 2026-04-30 15:52 685K
20260430T12Z_MSC_GDPS_AirTemp_IsbL-0010_LatLon0.15_PT018H.grib2 2026-04-30 15:52 695K
20260430T12Z_MSC_GDPS_AirTemp_IsbL-0020_LatLon0.15_PT018H.grib2 2026-04-30 15:52 786K
20260430T12Z_MSC_GDPS_AirTemp_IsbL-0030_LatLon0.15_PT018H.grib2 2026-04-30 15:52 750K
20260430T12Z_MSC_GDPS_AirTemp_IsbL-0050_LatLon0.15_PT018H.grib2 2026-04-30 15:52 806K
20260430T12Z_MSC_GDPS_AirTemp_IsbL-0100_LatLon0.15_PT018H.grib2 2026-04-30 15:52 954K
20260430T12Z_MSC_GDPS_AirTemp_IsbL-0150_LatLon0.15_PT018H.grib2 2026-04-30 15:52 1.0M
20260430T12Z_MSC_GDPS_AirTemp_IsbL-0175_LatLon0.15_PT018H.grib2 2026-04-30 15:52 958K
20260430T12Z_MSC_GDPS_AirTemp_IsbL-0200_LatLon0.15_PT018H.grib2 2026-04-30 15:52 971K
20260430T12Z_MSC_GDPS_AirTemp_IsbL-0225_LatLon0.15_PT018H.grib2 2026-04-30 15:52 1.0M
20260430T12Z_MSC_GDPS_AirTemp_IsbL-0250_LatLon0.15_PT018H.grib2 2026-04-30 15:52 1.0M
20260430T12Z_MSC_GDPS_AirTemp_IsbL-0275_LatLon0.15_PT018H.grib2 2026-04-30 15:52 1.0M
20260430T12Z_MSC_GDPS_AirTemp_IsbL-0300_LatLon0.15_PT018H.grib2 2026-04-30 15:52 948K
20260430T12Z_MSC_GDPS_AirTemp_IsbL-0350_LatLon0.15_PT018H.grib2 2026-04-30 15:52 929K
20260430T12Z_MSC_GDPS_AirTemp_IsbL-0400_LatLon0.15_PT018H.grib2 2026-04-30 15:52 936K
20260430T12Z_MSC_GDPS_AirTemp_IsbL-0450_LatLon0.15_PT018H.grib2 2026-04-30 15:52 954K
20260430T12Z_MSC_GDPS_AirTemp_IsbL-0500_LatLon0.15_PT018H.grib2 2026-04-30 15:52 759K
20260430T12Z_MSC_GDPS_AirTemp_IsbL-0550_LatLon0.15_PT018H.grib2 2026-04-30 15:52 794K
20260430T12Z_MSC_GDPS_AirTemp_IsbL-0600_LatLon0.15_PT018H.grib2 2026-04-30 15:52 889K
20260430T12Z_MSC_GDPS_AirTemp_IsbL-0650_LatLon0.15_PT018H.grib2 2026-04-30 15:52 916K
20260430T12Z_MSC_GDPS_AirTemp_IsbL-0700_LatLon0.15_PT018H.grib2 2026-04-30 15:52 949K
20260430T12Z_MSC_GDPS_AirTemp_IsbL-0750_LatLon0.15_PT018H.grib2 2026-04-30 15:52 1.0M
20260430T12Z_MSC_GDPS_AirTemp_IsbL-0800_LatLon0.15_PT018H.grib2 2026-04-30 15:52 1.1M
20260430T12Z_MSC_GDPS_AirTemp_IsbL-0850_LatLon0.15_PT018H.grib2 2026-04-30 15:52 1.1M
20260430T12Z_MSC_GDPS_AirTemp_IsbL-0875_LatLon0.15_PT018H.grib2 2026-04-30 15:52 1.1M
20260430T12Z_MSC_GDPS_AirTemp_IsbL-0900_LatLon0.15_PT018H.grib2 2026-04-30 15:52 1.1M
20260430T12Z_MSC_GDPS_AirTemp_IsbL-0925_LatLon0.15_PT018H.grib2 2026-04-30 15:52 1.1M
20260430T12Z_MSC_GDPS_AirTemp_IsbL-0950_LatLon0.15_PT018H.grib2 2026-04-30 15:52 1.1M
20260430T12Z_MSC_GDPS_AirTemp_IsbL-0970_LatLon0.15_PT018H.grib2 2026-04-30 15:52 1.1M
20260430T12Z_MSC_GDPS_AirTemp_IsbL-0985_LatLon0.15_PT018H.grib2 2026-04-30 15:52 1.1M
20260430T12Z_MSC_GDPS_AirTemp_IsbL-1000_LatLon0.15_PT018H.grib2 2026-04-30 15:52 1.1M
20260430T12Z_MSC_GDPS_AirTemp_IsbL-1015_LatLon0.15_PT018H.grib2 2026-04-30 15:52 1.1M
20260430T12Z_MSC_GDPS_Albedo_Sfc_LatLon0.15_PT018H.grib2 2026-04-30 15:52 243K
20260430T12Z_MSC_GDPS_CAPE_Sfc_LatLon0.15_PT018H.grib2 2026-04-30 15:52 4.1M
20260430T12Z_MSC_GDPS_CIN_Sfc_LatLon0.15_PT018H.grib2 2026-04-30 15:52 2.9M
20260430T12Z_MSC_GDPS_CloudWater_EAtm_LatLon0.15_PT018H.grib2 2026-04-30 15:52 528K
20260430T12Z_MSC_GDPS_ConvectivePrecip-Accum_Sfc_LatLon0.15_PT018H.grib2 2026-04-30 15:52 2.1M
20260430T12Z_MSC_GDPS_DewPointDepression_AGL-2m_LatLon0.15_PT018H.grib2 2026-04-30 15:52 767K
20260430T12Z_MSC_GDPS_DewPointDepression_IsbL-0010_LatLon0.15_PT018H.grib2 2026-04-30 15:52 58K
20260430T12Z_MSC_GDPS_DewPointDepression_IsbL-0020_LatLon0.15_PT018H.grib2 2026-04-30 15:52 66K
20260430T12Z_MSC_GDPS_DewPointDepression_IsbL-0030_LatLon0.15_PT018H.grib2 2026-04-30 15:52 72K
20260430T12Z_MSC_GDPS_DewPointDepression_IsbL-0050_LatLon0.15_PT018H.grib2 2026-04-30 15:52 369K
20260430T12Z_MSC_GDPS_DewPointDepression_IsbL-0100_LatLon0.15_PT018H.grib2 2026-04-30 15:52 415K
20260430T12Z_MSC_GDPS_DewPointDepression_IsbL-0150_LatLon0.15_PT018H.grib2 2026-04-30 15:52 470K
20260430T12Z_MSC_GDPS_DewPointDepression_IsbL-0175_LatLon0.15_PT018H.grib2 2026-04-30 15:52 561K
20260430T12Z_MSC_GDPS_DewPointDepression_IsbL-0200_LatLon0.15_PT018H.grib2 2026-04-30 15:52 684K
20260430T12Z_MSC_GDPS_DewPointDepression_IsbL-0225_LatLon0.15_PT018H.grib2 2026-04-30 15:52 794K
20260430T12Z_MSC_GDPS_DewPointDepression_IsbL-0250_LatLon0.15_PT018H.grib2 2026-04-30 15:52 877K
20260430T12Z_MSC_GDPS_DewPointDepression_IsbL-0275_LatLon0.15_PT018H.grib2 2026-04-30 15:52 886K
20260430T12Z_MSC_GDPS_DewPointDepression_IsbL-0300_LatLon0.15_PT018H.grib2 2026-04-30 15:52 927K
20260430T12Z_MSC_GDPS_DewPointDepression_IsbL-0350_LatLon0.15_PT018H.grib2 2026-04-30 15:52 950K
20260430T12Z_MSC_GDPS_DewPointDepression_IsbL-0400_LatLon0.15_PT018H.grib2 2026-04-30 15:52 1.0M
20260430T12Z_MSC_GDPS_DewPointDepression_IsbL-0450_LatLon0.15_PT018H.grib2 2026-04-30 15:52 1.0M
20260430T12Z_MSC_GDPS_DewPointDepression_IsbL-0500_LatLon0.15_PT018H.grib2 2026-04-30 15:52 1.0M
20260430T12Z_MSC_GDPS_DewPointDepression_IsbL-0550_LatLon0.15_PT018H.grib2 2026-04-30 15:52 1.0M
20260430T12Z_MSC_GDPS_DewPointDepression_IsbL-0600_LatLon0.15_PT018H.grib2 2026-04-30 15:52 1.0M
20260430T12Z_MSC_GDPS_DewPointDepression_IsbL-0650_LatLon0.15_PT018H.grib2 2026-04-30 15:52 1.1M
20260430T12Z_MSC_GDPS_DewPointDepression_IsbL-0700_LatLon0.15_PT018H.grib2 2026-04-30 15:52 1.1M
20260430T12Z_MSC_GDPS_DewPointDepression_IsbL-0750_LatLon0.15_PT018H.grib2 2026-04-30 15:52 1.1M
20260430T12Z_MSC_GDPS_DewPointDepression_IsbL-0800_LatLon0.15_PT018H.grib2 2026-04-30 15:52 1.2M
20260430T12Z_MSC_GDPS_DewPointDepression_IsbL-0850_LatLon0.15_PT018H.grib2 2026-04-30 15:52 1.1M
20260430T12Z_MSC_GDPS_DewPointDepression_IsbL-0875_LatLon0.15_PT018H.grib2 2026-04-30 15:52 1.1M
20260430T12Z_MSC_GDPS_DewPointDepression_IsbL-0900_LatLon0.15_PT018H.grib2 2026-04-30 15:52 1.1M
20260430T12Z_MSC_GDPS_DewPointDepression_IsbL-0925_LatLon0.15_PT018H.grib2 2026-04-30 15:52 1.0M
20260430T12Z_MSC_GDPS_DewPointDepression_IsbL-0950_LatLon0.15_PT018H.grib2 2026-04-30 15:52 1.0M
20260430T12Z_MSC_GDPS_DewPointDepression_IsbL-0970_LatLon0.15_PT018H.grib2 2026-04-30 15:52 1.0M
20260430T12Z_MSC_GDPS_DewPointDepression_IsbL-0985_LatLon0.15_PT018H.grib2 2026-04-30 15:52 1.0M
20260430T12Z_MSC_GDPS_DewPointDepression_IsbL-1000_LatLon0.15_PT018H.grib2 2026-04-30 15:52 1.0M
20260430T12Z_MSC_GDPS_DewPointDepression_IsbL-1015_LatLon0.15_PT018H.grib2 2026-04-30 15:52 919K
20260430T12Z_MSC_GDPS_DewPoint_AGL-2m_LatLon0.15_PT018H.grib2 2026-04-30 15:52 605K
20260430T12Z_MSC_GDPS_DownwardLongwaveRadiationFlux-Accum_Sfc_LatLon0.15_PT018H.grib2 2026-04-30 15:52 871K
20260430T12Z_MSC_GDPS_DownwardShortwaveRadiationFlux-Accum_NTAtm_LatLon0.15_PT018H.grib2 2026-04-30 15:52 357K
20260430T12Z_MSC_GDPS_DownwardShortwaveRadiationFlux-Accum_Sfc_LatLon0.15_PT018H.grib2 2026-04-30 15:52 1.1M
20260430T12Z_MSC_GDPS_FreezingRain-Accum12h_Sfc_LatLon0.15_PT018H.grib2 2026-04-30 15:52 112K
20260430T12Z_MSC_GDPS_FreezingRain-Accum1h_Sfc_LatLon0.15_PT018H.grib2 2026-04-30 15:52 39K
20260430T12Z_MSC_GDPS_FreezingRain-Accum3h_Sfc_LatLon0.15_PT018H.grib2 2026-04-30 15:52 51K
20260430T12Z_MSC_GDPS_FreezingRain-Accum6h_Sfc_LatLon0.15_PT018H.grib2 2026-04-30 15:52 82K
20260430T12Z_MSC_GDPS_FreezingRain-Accum_Sfc_LatLon0.15_PT018H.grib2 2026-04-30 15:52 167K
20260430T12Z_MSC_GDPS_GeopotentialHeight_IsbL-0001_LatLon0.15_PT018H.grib2 2026-04-30 15:52 428K
20260430T12Z_MSC_GDPS_GeopotentialHeight_IsbL-0005_LatLon0.15_PT018H.grib2 2026-04-30 15:52 486K
20260430T12Z_MSC_GDPS_GeopotentialHeight_IsbL-0010_LatLon0.15_PT018H.grib2 2026-04-30 15:52 475K
20260430T12Z_MSC_GDPS_GeopotentialHeight_IsbL-0020_LatLon0.15_PT018H.grib2 2026-04-30 15:52 411K
20260430T12Z_MSC_GDPS_GeopotentialHeight_IsbL-0030_LatLon0.15_PT018H.grib2 2026-04-30 15:52 569K
20260430T12Z_MSC_GDPS_GeopotentialHeight_IsbL-0050_LatLon0.15_PT018H.grib2 2026-04-30 15:52 571K
20260430T12Z_MSC_GDPS_GeopotentialHeight_IsbL-0100_LatLon0.15_PT018H.grib2 2026-04-30 15:52 609K
20260430T12Z_MSC_GDPS_GeopotentialHeight_IsbL-0150_LatLon0.15_PT018H.grib2 2026-04-30 15:52 625K
20260430T12Z_MSC_GDPS_GeopotentialHeight_IsbL-0175_LatLon0.15_PT018H.grib2 2026-04-30 15:52 630K
20260430T12Z_MSC_GDPS_GeopotentialHeight_IsbL-0200_LatLon0.15_PT018H.grib2 2026-04-30 15:52 634K
20260430T12Z_MSC_GDPS_GeopotentialHeight_IsbL-0225_LatLon0.15_PT018H.grib2 2026-04-30 15:52 637K
20260430T12Z_MSC_GDPS_GeopotentialHeight_IsbL-0250_LatLon0.15_PT018H.grib2 2026-04-30 15:52 637K
20260430T12Z_MSC_GDPS_GeopotentialHeight_IsbL-0275_LatLon0.15_PT018H.grib2 2026-04-30 15:52 638K
20260430T12Z_MSC_GDPS_GeopotentialHeight_IsbL-0300_LatLon0.15_PT018H.grib2 2026-04-30 15:52 630K
20260430T12Z_MSC_GDPS_GeopotentialHeight_IsbL-0350_LatLon0.15_PT018H.grib2 2026-04-30 15:52 625K
20260430T12Z_MSC_GDPS_GeopotentialHeight_IsbL-0400_LatLon0.15_PT018H.grib2 2026-04-30 15:52 618K
20260430T12Z_MSC_GDPS_GeopotentialHeight_IsbL-0450_LatLon0.15_PT018H.grib2 2026-04-30 15:52 609K
20260430T12Z_MSC_GDPS_GeopotentialHeight_IsbL-0500_LatLon0.15_PT018H.grib2 2026-04-30 15:52 530K
20260430T12Z_MSC_GDPS_GeopotentialHeight_IsbL-0550_LatLon0.15_PT018H.grib2 2026-04-30 15:52 524K
20260430T12Z_MSC_GDPS_GeopotentialHeight_IsbL-0600_LatLon0.15_PT018H.grib2 2026-04-30 15:52 522K
20260430T12Z_MSC_GDPS_GeopotentialHeight_IsbL-0650_LatLon0.15_PT018H.grib2 2026-04-30 15:52 687K
20260430T12Z_MSC_GDPS_GeopotentialHeight_IsbL-0700_LatLon0.15_PT018H.grib2 2026-04-30 15:52 687K
20260430T12Z_MSC_GDPS_GeopotentialHeight_IsbL-0750_LatLon0.15_PT018H.grib2 2026-04-30 15:52 693K
20260430T12Z_MSC_GDPS_GeopotentialHeight_IsbL-0800_LatLon0.15_PT018H.grib2 2026-04-30 15:52 702K
20260430T12Z_MSC_GDPS_GeopotentialHeight_IsbL-0850_LatLon0.15_PT018H.grib2 2026-04-30 15:52 707K
20260430T12Z_MSC_GDPS_GeopotentialHeight_IsbL-0875_LatLon0.15_PT018H.grib2 2026-04-30 15:52 716K
20260430T12Z_MSC_GDPS_GeopotentialHeight_IsbL-0900_LatLon0.15_PT018H.grib2 2026-04-30 15:52 720K
20260430T12Z_MSC_GDPS_GeopotentialHeight_IsbL-0925_LatLon0.15_PT018H.grib2 2026-04-30 15:52 730K
20260430T12Z_MSC_GDPS_GeopotentialHeight_IsbL-0950_LatLon0.15_PT018H.grib2 2026-04-30 15:52 739K
20260430T12Z_MSC_GDPS_GeopotentialHeight_IsbL-0970_LatLon0.15_PT018H.grib2 2026-04-30 15:52 749K
20260430T12Z_MSC_GDPS_GeopotentialHeight_IsbL-0985_LatLon0.15_PT018H.grib2 2026-04-30 15:52 764K
20260430T12Z_MSC_GDPS_GeopotentialHeight_IsbL-1000_LatLon0.15_PT018H.grib2 2026-04-30 15:52 786K
20260430T12Z_MSC_GDPS_GeopotentialHeight_IsbL-1015_LatLon0.15_PT018H.grib2 2026-04-30 15:52 809K
20260430T12Z_MSC_GDPS_Humidex_Sfc_LatLon0.15_PT018H.grib2 2026-04-30 15:52 5.3M
20260430T12Z_MSC_GDPS_IcePellets-Accum12h_Sfc_LatLon0.15_PT018H.grib2 2026-04-30 15:52 25K
20260430T12Z_MSC_GDPS_IcePellets-Accum1h_Sfc_LatLon0.15_PT018H.grib2 2026-04-30 15:52 13K
20260430T12Z_MSC_GDPS_IcePellets-Accum3h_Sfc_LatLon0.15_PT018H.grib2 2026-04-30 15:52 15K
20260430T12Z_MSC_GDPS_IcePellets-Accum6h_Sfc_LatLon0.15_PT018H.grib2 2026-04-30 15:52 20K
20260430T12Z_MSC_GDPS_IcePellets-Accum_Sfc_LatLon0.15_PT018H.grib2 2026-04-30 15:52 30K
20260430T12Z_MSC_GDPS_KIndex_Sfc_LatLon0.15_PT018H.grib2 2026-04-30 15:52 6.5M
20260430T12Z_MSC_GDPS_LatentHeatNetFlux_Sfc_LatLon0.15_PT018H.grib2 2026-04-30 15:52 532K
20260430T12Z_MSC_GDPS_LiftedIndex-MU-VT_IsbL-0500_LatLon0.15_PT018H.grib2 2026-04-30 15:52 5.4M
20260430T12Z_MSC_GDPS_NetLongwaveRadiationFlux-Accum_Sfc_LatLon0.15_PT018H.grib2 2026-04-30 15:52 1.1M
20260430T12Z_MSC_GDPS_NetShortwaveRadiationFlux-Accum_Sfc_LatLon0.15_PT018H.grib2 2026-04-30 15:52 1.0M
20260430T12Z_MSC_GDPS_O3MixingRatio_Sfc_LatLon0.15_PT018H.grib2 2026-04-30 16:43 2.4M
20260430T12Z_MSC_GDPS_O3_EAtm_LatLon0.15_PT018H.grib2 2026-04-30 16:43 2.5M
20260430T12Z_MSC_GDPS_PlanetaryBoundaryLayerHeight_Sfc_LatLon0.15_PT018H.grib2 2026-04-30 15:52 2.5M
20260430T12Z_MSC_GDPS_Precip-Accum12h_Sfc_LatLon0.15_PT018H.grib2 2026-04-30 15:52 4.0M
20260430T12Z_MSC_GDPS_Precip-Accum1h_Sfc_LatLon0.15_PT018H.grib2 2026-04-30 15:52 3.2M
20260430T12Z_MSC_GDPS_Precip-Accum3h_Sfc_LatLon0.15_PT018H.grib2 2026-04-30 15:52 3.4M
20260430T12Z_MSC_GDPS_Precip-Accum6h_Sfc_LatLon0.15_PT018H.grib2 2026-04-30 15:52 3.8M
20260430T12Z_MSC_GDPS_Precip-Accum_Sfc_LatLon0.15_PT018H.grib2 2026-04-30 15:52 4.4M
20260430T12Z_MSC_GDPS_PrecipRate_Sfc_LatLon0.15_PT018H.grib2 2026-04-30 15:52 3.1M
20260430T12Z_MSC_GDPS_PrecipType-Instant_Sfc_LatLon0.15_PT018H.grib2 2026-04-30 15:52 1.5M
20260430T12Z_MSC_GDPS_Pressure_MSL_LatLon0.15_PT018H.grib2 2026-04-30 15:52 818K
20260430T12Z_MSC_GDPS_Pressure_PVU-1.5_LatLon0.15_PT018H.grib2 2026-04-30 15:52 5.8M
20260430T12Z_MSC_GDPS_Pressure_PVU-1_LatLon0.15_PT018H.grib2 2026-04-30 15:52 6.0M
20260430T12Z_MSC_GDPS_Pressure_PVU-2_LatLon0.15_PT018H.grib2 2026-04-30 15:52 5.6M
20260430T12Z_MSC_GDPS_Pressure_Sfc_LatLon0.15_PT018H.grib2 2026-04-30 15:52 1.1M
20260430T12Z_MSC_GDPS_RadiativeTemp_Sfc_LatLon0.15_PT018H.grib2 2026-04-30 15:52 490K
20260430T12Z_MSC_GDPS_Rain-Accum12h_Sfc_LatLon0.15_PT018H.grib2 2026-04-30 15:52 2.7M
20260430T12Z_MSC_GDPS_Rain-Accum1h_Sfc_LatLon0.15_PT018H.grib2 2026-04-30 15:52 1.6M
20260430T12Z_MSC_GDPS_Rain-Accum3h_Sfc_LatLon0.15_PT018H.grib2 2026-04-30 15:52 1.8M
20260430T12Z_MSC_GDPS_Rain-Accum6h_Sfc_LatLon0.15_PT018H.grib2 2026-04-30 15:52 2.4M
20260430T12Z_MSC_GDPS_Rain-Accum_Sfc_LatLon0.15_PT018H.grib2 2026-04-30 15:52 3.2M
20260430T12Z_MSC_GDPS_RelativeHumidity_AGL-2m_LatLon0.15_PT018H.grib2 2026-04-30 15:52 1.0M
20260430T12Z_MSC_GDPS_RelativeHumidity_IsbL-0010_LatLon0.15_PT018H.grib2 2026-04-30 15:52 204K
20260430T12Z_MSC_GDPS_RelativeHumidity_IsbL-0020_LatLon0.15_PT018H.grib2 2026-04-30 15:52 173K
20260430T12Z_MSC_GDPS_RelativeHumidity_IsbL-0030_LatLon0.15_PT018H.grib2 2026-04-30 15:52 271K
20260430T12Z_MSC_GDPS_RelativeHumidity_IsbL-0050_LatLon0.15_PT018H.grib2 2026-04-30 15:52 419K
20260430T12Z_MSC_GDPS_RelativeHumidity_IsbL-0100_LatLon0.15_PT018H.grib2 2026-04-30 15:52 509K
20260430T12Z_MSC_GDPS_RelativeHumidity_IsbL-0150_LatLon0.15_PT018H.grib2 2026-04-30 15:52 660K
20260430T12Z_MSC_GDPS_RelativeHumidity_IsbL-0175_LatLon0.15_PT018H.grib2 2026-04-30 15:52 770K
20260430T12Z_MSC_GDPS_RelativeHumidity_IsbL-0200_LatLon0.15_PT018H.grib2 2026-04-30 15:52 688K
20260430T12Z_MSC_GDPS_RelativeHumidity_IsbL-0225_LatLon0.15_PT018H.grib2 2026-04-30 15:52 784K
20260430T12Z_MSC_GDPS_RelativeHumidity_IsbL-0250_LatLon0.15_PT018H.grib2 2026-04-30 15:52 865K
20260430T12Z_MSC_GDPS_RelativeHumidity_IsbL-0275_LatLon0.15_PT018H.grib2 2026-04-30 15:52 884K
20260430T12Z_MSC_GDPS_RelativeHumidity_IsbL-0300_LatLon0.15_PT018H.grib2 2026-04-30 15:52 927K
20260430T12Z_MSC_GDPS_RelativeHumidity_IsbL-0350_LatLon0.15_PT018H.grib2 2026-04-30 15:52 945K
20260430T12Z_MSC_GDPS_RelativeHumidity_IsbL-0400_LatLon0.15_PT018H.grib2 2026-04-30 15:52 968K
20260430T12Z_MSC_GDPS_RelativeHumidity_IsbL-0450_LatLon0.15_PT018H.grib2 2026-04-30 15:52 1.0M
20260430T12Z_MSC_GDPS_RelativeHumidity_IsbL-0500_LatLon0.15_PT018H.grib2 2026-04-30 15:52 1.0M
20260430T12Z_MSC_GDPS_RelativeHumidity_IsbL-0550_LatLon0.15_PT018H.grib2 2026-04-30 15:52 1.1M
20260430T12Z_MSC_GDPS_RelativeHumidity_IsbL-0600_LatLon0.15_PT018H.grib2 2026-04-30 15:52 1.1M
20260430T12Z_MSC_GDPS_RelativeHumidity_IsbL-0650_LatLon0.15_PT018H.grib2 2026-04-30 15:52 1.1M
20260430T12Z_MSC_GDPS_RelativeHumidity_IsbL-0700_LatLon0.15_PT018H.grib2 2026-04-30 15:52 1.1M
20260430T12Z_MSC_GDPS_RelativeHumidity_IsbL-0750_LatLon0.15_PT018H.grib2 2026-04-30 15:52 1.2M
20260430T12Z_MSC_GDPS_RelativeHumidity_IsbL-0800_LatLon0.15_PT018H.grib2 2026-04-30 15:52 1.2M
20260430T12Z_MSC_GDPS_RelativeHumidity_IsbL-0850_LatLon0.15_PT018H.grib2 2026-04-30 15:52 1.3M
20260430T12Z_MSC_GDPS_RelativeHumidity_IsbL-0875_LatLon0.15_PT018H.grib2 2026-04-30 15:52 1.3M
20260430T12Z_MSC_GDPS_RelativeHumidity_IsbL-0900_LatLon0.15_PT018H.grib2 2026-04-30 15:52 1.2M
20260430T12Z_MSC_GDPS_RelativeHumidity_IsbL-0925_LatLon0.15_PT018H.grib2 2026-04-30 15:52 1.2M
20260430T12Z_MSC_GDPS_RelativeHumidity_IsbL-0950_LatLon0.15_PT018H.grib2 2026-04-30 15:52 1.2M
20260430T12Z_MSC_GDPS_RelativeHumidity_IsbL-0970_LatLon0.15_PT018H.grib2 2026-04-30 15:52 1.2M
20260430T12Z_MSC_GDPS_RelativeHumidity_IsbL-0985_LatLon0.15_PT018H.grib2 2026-04-30 15:52 1.2M
20260430T12Z_MSC_GDPS_RelativeHumidity_IsbL-1000_LatLon0.15_PT018H.grib2 2026-04-30 15:52 1.1M
20260430T12Z_MSC_GDPS_RelativeHumidity_IsbL-1015_LatLon0.15_PT018H.grib2 2026-04-30 15:52 1.0M
20260430T12Z_MSC_GDPS_RelativeVorticity_IsbL-0200_LatLon0.15_PT018H.grib2 2026-04-30 15:52 1.5M
20260430T12Z_MSC_GDPS_RelativeVorticity_IsbL-0250_LatLon0.15_PT018H.grib2 2026-04-30 15:52 1.6M
20260430T12Z_MSC_GDPS_RelativeVorticity_IsbL-0500_LatLon0.15_PT018H.grib2 2026-04-30 15:52 1.4M
20260430T12Z_MSC_GDPS_RelativeVorticity_IsbL-0700_LatLon0.15_PT018H.grib2 2026-04-30 15:52 1.3M
20260430T12Z_MSC_GDPS_RelativeVorticity_IsbL-0850_LatLon0.15_PT018H.grib2 2026-04-30 15:52 1.6M
20260430T12Z_MSC_GDPS_Runoff-Accum_Sfc_LatLon0.15_PT018H.grib2 2026-04-30 15:52 102K
20260430T12Z_MSC_GDPS_SensibleHeatNetFlux_Sfc_LatLon0.15_PT018H.grib2 2026-04-30 15:52 650K
20260430T12Z_MSC_GDPS_ShowalterIndex_IsbL-0500_LatLon0.15_PT018H.grib2 2026-04-30 15:52 6.2M
20260430T12Z_MSC_GDPS_Snow-Accum12h_Sfc_LatLon0.15_PT018H.grib2 2026-04-30 15:52 1.5M
20260430T12Z_MSC_GDPS_Snow-Accum1h_Sfc_LatLon0.15_PT018H.grib2 2026-04-30 15:52 1.0M
20260430T12Z_MSC_GDPS_Snow-Accum3h_Sfc_LatLon0.15_PT018H.grib2 2026-04-30 15:52 1.1M
20260430T12Z_MSC_GDPS_Snow-Accum6h_Sfc_LatLon0.15_PT018H.grib2 2026-04-30 15:52 1.4M
20260430T12Z_MSC_GDPS_Snow-Accum_Sfc_LatLon0.15_PT018H.grib2 2026-04-30 15:52 1.8M
20260430T12Z_MSC_GDPS_SnowDensity_Sfc_LatLon0.15_PT018H.grib2 2026-04-30 15:52 256K
20260430T12Z_MSC_GDPS_SnowDepth_Sfc_LatLon0.15_PT018H.grib2 2026-04-30 15:52 1.7M
20260430T12Z_MSC_GDPS_SoilTemp_DBS-0to10cm_LatLon0.15_PT018H.grib2 2026-04-30 15:52 496K
20260430T12Z_MSC_GDPS_SoilTemp_Sfc_LatLon0.15_PT018H.grib2 2026-04-30 15:52 577K
20260430T12Z_MSC_GDPS_SoilVolumetricIceContent_Sfc_LatLon0.15_PT018H.grib2 2026-04-30 15:52 205K
20260430T12Z_MSC_GDPS_SoilVolumetricWaterContent_DBS-0to10cm_LatLon0.15_PT018H.grib2 2026-04-30 15:52 585K
20260430T12Z_MSC_GDPS_SoilVolumetricWaterContent_DBS-0to1cm_LatLon0.15_PT018H.grib2 2026-04-30 15:52 649K
20260430T12Z_MSC_GDPS_SpecificHumidity_AGL-120m_LatLon0.15_PT018H.grib2 2026-04-30 15:52 1.1M
20260430T12Z_MSC_GDPS_SpecificHumidity_AGL-2m_LatLon0.15_PT018H.grib2 2026-04-30 15:52 1.2M
20260430T12Z_MSC_GDPS_SpecificHumidity_AGL-40m_LatLon0.15_PT018H.grib2 2026-04-30 15:52 1.1M
20260430T12Z_MSC_GDPS_SpecificHumidity_AGL-80m_LatLon0.15_PT018H.grib2 2026-04-30 15:52 1.1M
20260430T12Z_MSC_GDPS_SpecificHumidity_IsbL-0001_LatLon0.15_PT018H.grib2 2026-04-30 15:52 1.4M
20260430T12Z_MSC_GDPS_SpecificHumidity_IsbL-0005_LatLon0.15_PT018H.grib2 2026-04-30 15:52 1.3M
20260430T12Z_MSC_GDPS_SpecificHumidity_IsbL-0010_LatLon0.15_PT018H.grib2 2026-04-30 15:52 1.4M
20260430T12Z_MSC_GDPS_SpecificHumidity_IsbL-0020_LatLon0.15_PT018H.grib2 2026-04-30 15:52 1.4M
20260430T12Z_MSC_GDPS_SpecificHumidity_IsbL-0030_LatLon0.15_PT018H.grib2 2026-04-30 15:52 1.4M
20260430T12Z_MSC_GDPS_SpecificHumidity_IsbL-0050_LatLon0.15_PT018H.grib2 2026-04-30 15:52 1.7M
20260430T12Z_MSC_GDPS_SpecificHumidity_IsbL-0100_LatLon0.15_PT018H.grib2 2026-04-30 15:52 1.4M
20260430T12Z_MSC_GDPS_SpecificHumidity_IsbL-0150_LatLon0.15_PT018H.grib2 2026-04-30 15:52 1.3M
20260430T12Z_MSC_GDPS_SpecificHumidity_IsbL-0175_LatLon0.15_PT018H.grib2 2026-04-30 15:52 1.2M
20260430T12Z_MSC_GDPS_SpecificHumidity_IsbL-0200_LatLon0.15_PT018H.grib2 2026-04-30 15:52 1.3M
20260430T12Z_MSC_GDPS_SpecificHumidity_IsbL-0225_LatLon0.15_PT018H.grib2 2026-04-30 15:52 1.3M
20260430T12Z_MSC_GDPS_SpecificHumidity_IsbL-0250_LatLon0.15_PT018H.grib2 2026-04-30 15:52 1.4M
20260430T12Z_MSC_GDPS_SpecificHumidity_IsbL-0275_LatLon0.15_PT018H.grib2 2026-04-30 15:52 1.3M
20260430T12Z_MSC_GDPS_SpecificHumidity_IsbL-0300_LatLon0.15_PT018H.grib2 2026-04-30 15:52 1.2M
20260430T12Z_MSC_GDPS_SpecificHumidity_IsbL-0350_LatLon0.15_PT018H.grib2 2026-04-30 15:52 1.2M
20260430T12Z_MSC_GDPS_SpecificHumidity_IsbL-0400_LatLon0.15_PT018H.grib2 2026-04-30 15:52 1.4M
20260430T12Z_MSC_GDPS_SpecificHumidity_IsbL-0450_LatLon0.15_PT018H.grib2 2026-04-30 15:52 1.6M
20260430T12Z_MSC_GDPS_SpecificHumidity_IsbL-0500_LatLon0.15_PT018H.grib2 2026-04-30 15:52 1.4M
20260430T12Z_MSC_GDPS_SpecificHumidity_IsbL-0550_LatLon0.15_PT018H.grib2 2026-04-30 15:52 1.6M
20260430T12Z_MSC_GDPS_SpecificHumidity_IsbL-0600_LatLon0.15_PT018H.grib2 2026-04-30 15:52 1.7M
20260430T12Z_MSC_GDPS_SpecificHumidity_IsbL-0650_LatLon0.15_PT018H.grib2 2026-04-30 15:52 1.5M
20260430T12Z_MSC_GDPS_SpecificHumidity_IsbL-0700_LatLon0.15_PT018H.grib2 2026-04-30 15:52 1.6M
20260430T12Z_MSC_GDPS_SpecificHumidity_IsbL-0750_LatLon0.15_PT018H.grib2 2026-04-30 15:52 1.7M
20260430T12Z_MSC_GDPS_SpecificHumidity_IsbL-0800_LatLon0.15_PT018H.grib2 2026-04-30 15:52 1.8M
20260430T12Z_MSC_GDPS_SpecificHumidity_IsbL-0850_LatLon0.15_PT018H.grib2 2026-04-30 15:52 1.9M
20260430T12Z_MSC_GDPS_SpecificHumidity_IsbL-0875_LatLon0.15_PT018H.grib2 2026-04-30 15:52 1.9M
20260430T12Z_MSC_GDPS_SpecificHumidity_IsbL-0900_LatLon0.15_PT018H.grib2 2026-04-30 15:52 1.9M
20260430T12Z_MSC_GDPS_SpecificHumidity_IsbL-0925_LatLon0.15_PT018H.grib2 2026-04-30 15:52 1.9M
20260430T12Z_MSC_GDPS_SpecificHumidity_IsbL-0950_LatLon0.15_PT018H.grib2 2026-04-30 15:52 1.5M
20260430T12Z_MSC_GDPS_SpecificHumidity_IsbL-0970_LatLon0.15_PT018H.grib2 2026-04-30 15:52 1.5M
20260430T12Z_MSC_GDPS_SpecificHumidity_IsbL-0985_LatLon0.15_PT018H.grib2 2026-04-30 15:52 1.5M
20260430T12Z_MSC_GDPS_SpecificHumidity_IsbL-1000_LatLon0.15_PT018H.grib2 2026-04-30 15:52 1.5M
20260430T12Z_MSC_GDPS_SpecificHumidity_IsbL-1015_LatLon0.15_PT018H.grib2 2026-04-30 15:52 1.4M
20260430T12Z_MSC_GDPS_SpecificHumidity_Sfc_LatLon0.15_PT018H.grib2 2026-04-30 15:52 580K
20260430T12Z_MSC_GDPS_Thickness_IsbL-0850to0700_LatLon0.15_PT018H.grib2 2026-04-30 15:52 464K
20260430T12Z_MSC_GDPS_Thickness_IsbL-1000to0500_LatLon0.15_PT018H.grib2 2026-04-30 15:52 365K
20260430T12Z_MSC_GDPS_Thickness_IsbL-1000to0850_LatLon0.15_PT018H.grib2 2026-04-30 15:52 485K
20260430T12Z_MSC_GDPS_TotalCloudCover_Sfc_LatLon0.15_PT018H.grib2 2026-04-30 15:52 826K
20260430T12Z_MSC_GDPS_TotalTotalsIndex_Sfc_LatLon0.15_PT018H.grib2 2026-04-30 15:52 6.2M
20260430T12Z_MSC_GDPS_UVIndex-ClearSky_Sfc_LatLon0.15_PT018H.grib2 2026-04-30 16:43 1.1M
20260430T12Z_MSC_GDPS_UVIndex_Sfc_LatLon0.15_PT018H.grib2 2026-04-30 16:43 1.5M
20260430T12Z_MSC_GDPS_UpwardLongwaveRadiationFlux_NTAtm_LatLon0.15_PT018H.grib2 2026-04-30 15:52 832K
20260430T12Z_MSC_GDPS_VerticalVelocity_IsbL-0200_LatLon0.15_PT018H.grib2 2026-04-30 15:52 1.1M
20260430T12Z_MSC_GDPS_VerticalVelocity_IsbL-0250_LatLon0.15_PT018H.grib2 2026-04-30 15:52 1.0M
20260430T12Z_MSC_GDPS_VerticalVelocity_IsbL-0500_LatLon0.15_PT018H.grib2 2026-04-30 15:52 1.3M
20260430T12Z_MSC_GDPS_VerticalVelocity_IsbL-0600_LatLon0.15_PT018H.grib2 2026-04-30 15:52 1.3M
20260430T12Z_MSC_GDPS_VerticalVelocity_IsbL-0700_LatLon0.15_PT018H.grib2 2026-04-30 15:52 1.1M
20260430T12Z_MSC_GDPS_VerticalVelocity_IsbL-0850_LatLon0.15_PT018H.grib2 2026-04-30 15:52 1.2M
20260430T12Z_MSC_GDPS_WindChill_Sfc_LatLon0.15_PT018H.grib2 2026-04-30 15:52 5.3M
20260430T12Z_MSC_GDPS_WindDir_AGL-10m_LatLon0.15_PT018H.grib2 2026-04-30 15:52 1.3M
20260430T12Z_MSC_GDPS_WindDir_AGL-120m_LatLon0.15_PT018H.grib2 2026-04-30 15:52 1.3M
20260430T12Z_MSC_GDPS_WindDir_AGL-40m_LatLon0.15_PT018H.grib2 2026-04-30 15:52 1.4M
20260430T12Z_MSC_GDPS_WindDir_AGL-80m_LatLon0.15_PT018H.grib2 2026-04-30 15:52 1.4M
20260430T12Z_MSC_GDPS_WindDir_IsbL-0001_LatLon0.15_PT018H.grib2 2026-04-30 15:52 691K
20260430T12Z_MSC_GDPS_WindDir_IsbL-0005_LatLon0.15_PT018H.grib2 2026-04-30 15:52 798K
20260430T12Z_MSC_GDPS_WindDir_IsbL-0010_LatLon0.15_PT018H.grib2 2026-04-30 15:52 863K
20260430T12Z_MSC_GDPS_WindDir_IsbL-0020_LatLon0.15_PT018H.grib2 2026-04-30 15:52 953K
20260430T12Z_MSC_GDPS_WindDir_IsbL-0030_LatLon0.15_PT018H.grib2 2026-04-30 15:52 938K
20260430T12Z_MSC_GDPS_WindDir_IsbL-0050_LatLon0.15_PT018H.grib2 2026-04-30 15:52 950K
20260430T12Z_MSC_GDPS_WindDir_IsbL-0100_LatLon0.15_PT018H.grib2 2026-04-30 15:52 1.0M
20260430T12Z_MSC_GDPS_WindDir_IsbL-0150_LatLon0.15_PT018H.grib2 2026-04-30 15:52 1.0M
20260430T12Z_MSC_GDPS_WindDir_IsbL-0175_LatLon0.15_PT018H.grib2 2026-04-30 15:52 1.1M
20260430T12Z_MSC_GDPS_WindDir_IsbL-0200_LatLon0.15_PT018H.grib2 2026-04-30 15:52 1.1M
20260430T12Z_MSC_GDPS_WindDir_IsbL-0225_LatLon0.15_PT018H.grib2 2026-04-30 15:52 1.1M
20260430T12Z_MSC_GDPS_WindDir_IsbL-0250_LatLon0.15_PT018H.grib2 2026-04-30 15:52 1.1M
20260430T12Z_MSC_GDPS_WindDir_IsbL-0275_LatLon0.15_PT018H.grib2 2026-04-30 15:52 1.2M
20260430T12Z_MSC_GDPS_WindDir_IsbL-0300_LatLon0.15_PT018H.grib2 2026-04-30 15:52 1.2M
20260430T12Z_MSC_GDPS_WindDir_IsbL-0350_LatLon0.15_PT018H.grib2 2026-04-30 15:52 1.2M
20260430T12Z_MSC_GDPS_WindDir_IsbL-0400_LatLon0.15_PT018H.grib2 2026-04-30 15:52 1.3M
20260430T12Z_MSC_GDPS_WindDir_IsbL-0450_LatLon0.15_PT018H.grib2 2026-04-30 15:52 1.3M
20260430T12Z_MSC_GDPS_WindDir_IsbL-0500_LatLon0.15_PT018H.grib2 2026-04-30 15:52 1.3M
20260430T12Z_MSC_GDPS_WindDir_IsbL-0550_LatLon0.15_PT018H.grib2 2026-04-30 15:52 1.4M
20260430T12Z_MSC_GDPS_WindDir_IsbL-0600_LatLon0.15_PT018H.grib2 2026-04-30 15:52 1.4M
20260430T12Z_MSC_GDPS_WindDir_IsbL-0650_LatLon0.15_PT018H.grib2 2026-04-30 15:52 1.5M
20260430T12Z_MSC_GDPS_WindDir_IsbL-0700_LatLon0.15_PT018H.grib2 2026-04-30 15:52 1.6M
20260430T12Z_MSC_GDPS_WindDir_IsbL-0750_LatLon0.15_PT018H.grib2 2026-04-30 15:52 1.7M
20260430T12Z_MSC_GDPS_WindDir_IsbL-0800_LatLon0.15_PT018H.grib2 2026-04-30 15:52 1.8M
20260430T12Z_MSC_GDPS_WindDir_IsbL-0850_LatLon0.15_PT018H.grib2 2026-04-30 15:52 1.9M
20260430T12Z_MSC_GDPS_WindDir_IsbL-0875_LatLon0.15_PT018H.grib2 2026-04-30 15:52 1.9M
20260430T12Z_MSC_GDPS_WindDir_IsbL-0900_LatLon0.15_PT018H.grib2 2026-04-30 15:52 1.9M
20260430T12Z_MSC_GDPS_WindDir_IsbL-0925_LatLon0.15_PT018H.grib2 2026-04-30 15:52 1.9M
20260430T12Z_MSC_GDPS_WindDir_IsbL-0950_LatLon0.15_PT018H.grib2 2026-04-30 15:52 2.0M
20260430T12Z_MSC_GDPS_WindDir_IsbL-0970_LatLon0.15_PT018H.grib2 2026-04-30 15:52 2.0M
20260430T12Z_MSC_GDPS_WindDir_IsbL-0985_LatLon0.15_PT018H.grib2 2026-04-30 15:52 2.0M
20260430T12Z_MSC_GDPS_WindDir_IsbL-1000_LatLon0.15_PT018H.grib2 2026-04-30 15:52 2.0M
20260430T12Z_MSC_GDPS_WindDir_IsbL-1015_LatLon0.15_PT018H.grib2 2026-04-30 15:52 2.0M
20260430T12Z_MSC_GDPS_WindGust-Max_AGL-10m_LatLon0.15_PT018H.grib2 2026-04-30 15:52 2.2M
20260430T12Z_MSC_GDPS_WindGust-Min_AGL-10m_LatLon0.15_PT018H.grib2 2026-04-30 15:52 2.2M
20260430T12Z_MSC_GDPS_WindGust_AGL-10m_LatLon0.15_PT018H.grib2 2026-04-30 15:52 2.1M
20260430T12Z_MSC_GDPS_WindSpeed_AGL-10m_LatLon0.15_PT018H.grib2 2026-04-30 15:52 1.1M
20260430T12Z_MSC_GDPS_WindSpeed_AGL-120m_LatLon0.15_PT018H.grib2 2026-04-30 15:52 1.2M
20260430T12Z_MSC_GDPS_WindSpeed_AGL-40m_LatLon0.15_PT018H.grib2 2026-04-30 15:52 1.2M
20260430T12Z_MSC_GDPS_WindSpeed_AGL-80m_LatLon0.15_PT018H.grib2 2026-04-30 15:52 1.2M
20260430T12Z_MSC_GDPS_WindSpeed_IsbL-0001_LatLon0.15_PT018H.grib2 2026-04-30 15:52 643K
20260430T12Z_MSC_GDPS_WindSpeed_IsbL-0005_LatLon0.15_PT018H.grib2 2026-04-30 15:52 618K
20260430T12Z_MSC_GDPS_WindSpeed_IsbL-0010_LatLon0.15_PT018H.grib2 2026-04-30 15:52 634K
20260430T12Z_MSC_GDPS_WindSpeed_IsbL-0020_LatLon0.15_PT018H.grib2 2026-04-30 15:52 865K
20260430T12Z_MSC_GDPS_WindSpeed_IsbL-0030_LatLon0.15_PT018H.grib2 2026-04-30 15:52 870K
20260430T12Z_MSC_GDPS_WindSpeed_IsbL-0050_LatLon0.15_PT018H.grib2 2026-04-30 15:52 912K
20260430T12Z_MSC_GDPS_WindSpeed_IsbL-0100_LatLon0.15_PT018H.grib2 2026-04-30 15:52 1.1M
20260430T12Z_MSC_GDPS_WindSpeed_IsbL-0150_LatLon0.15_PT018H.grib2 2026-04-30 15:52 1.0M
20260430T12Z_MSC_GDPS_WindSpeed_IsbL-0175_LatLon0.15_PT018H.grib2 2026-04-30 15:52 1.0M
20260430T12Z_MSC_GDPS_WindSpeed_IsbL-0200_LatLon0.15_PT018H.grib2 2026-04-30 15:52 1.1M
20260430T12Z_MSC_GDPS_WindSpeed_IsbL-0225_LatLon0.15_PT018H.grib2 2026-04-30 15:52 1.1M
20260430T12Z_MSC_GDPS_WindSpeed_IsbL-0250_LatLon0.15_PT018H.grib2 2026-04-30 15:52 1.1M
20260430T12Z_MSC_GDPS_WindSpeed_IsbL-0275_LatLon0.15_PT018H.grib2 2026-04-30 15:52 1.1M
20260430T12Z_MSC_GDPS_WindSpeed_IsbL-0300_LatLon0.15_PT018H.grib2 2026-04-30 15:52 1.1M
20260430T12Z_MSC_GDPS_WindSpeed_IsbL-0350_LatLon0.15_PT018H.grib2 2026-04-30 15:52 1.1M
20260430T12Z_MSC_GDPS_WindSpeed_IsbL-0400_LatLon0.15_PT018H.grib2 2026-04-30 15:52 1.1M
20260430T12Z_MSC_GDPS_WindSpeed_IsbL-0450_LatLon0.15_PT018H.grib2 2026-04-30 15:52 1.1M
20260430T12Z_MSC_GDPS_WindSpeed_IsbL-0500_LatLon0.15_PT018H.grib2 2026-04-30 15:52 1.1M
20260430T12Z_MSC_GDPS_WindSpeed_IsbL-0550_LatLon0.15_PT018H.grib2 2026-04-30 15:52 1.1M
20260430T12Z_MSC_GDPS_WindSpeed_IsbL-0600_LatLon0.15_PT018H.grib2 2026-04-30 15:52 1.1M
20260430T12Z_MSC_GDPS_WindSpeed_IsbL-0650_LatLon0.15_PT018H.grib2 2026-04-30 15:52 1.4M
20260430T12Z_MSC_GDPS_WindSpeed_IsbL-0700_LatLon0.15_PT018H.grib2 2026-04-30 15:52 1.5M
20260430T12Z_MSC_GDPS_WindSpeed_IsbL-0750_LatLon0.15_PT018H.grib2 2026-04-30 15:52 1.6M
20260430T12Z_MSC_GDPS_WindSpeed_IsbL-0800_LatLon0.15_PT018H.grib2 2026-04-30 15:52 1.7M
20260430T12Z_MSC_GDPS_WindSpeed_IsbL-0850_LatLon0.15_PT018H.grib2 2026-04-30 15:52 1.7M
20260430T12Z_MSC_GDPS_WindSpeed_IsbL-0875_LatLon0.15_PT018H.grib2 2026-04-30 15:52 1.8M
20260430T12Z_MSC_GDPS_WindSpeed_IsbL-0900_LatLon0.15_PT018H.grib2 2026-04-30 15:52 1.8M
20260430T12Z_MSC_GDPS_WindSpeed_IsbL-0925_LatLon0.15_PT018H.grib2 2026-04-30 15:52 1.8M
20260430T12Z_MSC_GDPS_WindSpeed_IsbL-0950_LatLon0.15_PT018H.grib2 2026-04-30 15:52 1.9M
20260430T12Z_MSC_GDPS_WindSpeed_IsbL-0970_LatLon0.15_PT018H.grib2 2026-04-30 15:52 1.9M
20260430T12Z_MSC_GDPS_WindSpeed_IsbL-0985_LatLon0.15_PT018H.grib2 2026-04-30 15:52 1.9M
20260430T12Z_MSC_GDPS_WindSpeed_IsbL-1000_LatLon0.15_PT018H.grib2 2026-04-30 15:52 1.9M
20260430T12Z_MSC_GDPS_WindSpeed_IsbL-1015_LatLon0.15_PT018H.grib2 2026-04-30 15:52 1.8M
20260430T12Z_MSC_GDPS_WindU_AGL-10m_LatLon0.15_PT018H.grib2 2026-04-30 15:52 1.3M
20260430T12Z_MSC_GDPS_WindU_AGL-120m_LatLon0.15_PT018H.grib2 2026-04-30 15:52 1.0M
20260430T12Z_MSC_GDPS_WindU_AGL-40m_LatLon0.15_PT018H.grib2 2026-04-30 15:52 1.0M
20260430T12Z_MSC_GDPS_WindU_AGL-80m_LatLon0.15_PT018H.grib2 2026-04-30 15:52 1.0M
20260430T12Z_MSC_GDPS_WindU_IsbL-0001_LatLon0.15_PT018H.grib2 2026-04-30 15:52 503K
20260430T12Z_MSC_GDPS_WindU_IsbL-0005_LatLon0.15_PT018H.grib2 2026-04-30 15:52 697K
20260430T12Z_MSC_GDPS_WindU_IsbL-0010_LatLon0.15_PT018H.grib2 2026-04-30 15:52 708K
20260430T12Z_MSC_GDPS_WindU_IsbL-0020_LatLon0.15_PT018H.grib2 2026-04-30 15:52 737K
20260430T12Z_MSC_GDPS_WindU_IsbL-0030_LatLon0.15_PT018H.grib2 2026-04-30 15:52 744K
20260430T12Z_MSC_GDPS_WindU_IsbL-0050_LatLon0.15_PT018H.grib2 2026-04-30 15:52 775K
20260430T12Z_MSC_GDPS_WindU_IsbL-0100_LatLon0.15_PT018H.grib2 2026-04-30 15:52 919K
20260430T12Z_MSC_GDPS_WindU_IsbL-0150_LatLon0.15_PT018H.grib2 2026-04-30 15:52 1.0M
20260430T12Z_MSC_GDPS_WindU_IsbL-0175_LatLon0.15_PT018H.grib2 2026-04-30 15:52 1.0M
20260430T12Z_MSC_GDPS_WindU_IsbL-0200_LatLon0.15_PT018H.grib2 2026-04-30 15:52 1.0M
20260430T12Z_MSC_GDPS_WindU_IsbL-0225_LatLon0.15_PT018H.grib2 2026-04-30 15:52 854K
20260430T12Z_MSC_GDPS_WindU_IsbL-0250_LatLon0.15_PT018H.grib2 2026-04-30 15:52 856K
20260430T12Z_MSC_GDPS_WindU_IsbL-0275_LatLon0.15_PT018H.grib2 2026-04-30 15:52 882K
20260430T12Z_MSC_GDPS_WindU_IsbL-0300_LatLon0.15_PT018H.grib2 2026-04-30 15:52 870K
20260430T12Z_MSC_GDPS_WindU_IsbL-0350_LatLon0.15_PT018H.grib2 2026-04-30 15:52 883K
20260430T12Z_MSC_GDPS_WindU_IsbL-0400_LatLon0.15_PT018H.grib2 2026-04-30 15:52 1.1M
20260430T12Z_MSC_GDPS_WindU_IsbL-0450_LatLon0.15_PT018H.grib2 2026-04-30 15:52 1.1M
20260430T12Z_MSC_GDPS_WindU_IsbL-0500_LatLon0.15_PT018H.grib2 2026-04-30 15:52 1.1M
20260430T12Z_MSC_GDPS_WindU_IsbL-0550_LatLon0.15_PT018H.grib2 2026-04-30 15:52 1.1M
20260430T12Z_MSC_GDPS_WindU_IsbL-0600_LatLon0.15_PT018H.grib2 2026-04-30 15:52 1.1M
20260430T12Z_MSC_GDPS_WindU_IsbL-0650_LatLon0.15_PT018H.grib2 2026-04-30 15:52 1.2M
20260430T12Z_MSC_GDPS_WindU_IsbL-0700_LatLon0.15_PT018H.grib2 2026-04-30 15:52 1.2M
20260430T12Z_MSC_GDPS_WindU_IsbL-0750_LatLon0.15_PT018H.grib2 2026-04-30 15:52 1.3M
20260430T12Z_MSC_GDPS_WindU_IsbL-0800_LatLon0.15_PT018H.grib2 2026-04-30 15:52 1.3M
20260430T12Z_MSC_GDPS_WindU_IsbL-0850_LatLon0.15_PT018H.grib2 2026-04-30 15:52 1.4M
20260430T12Z_MSC_GDPS_WindU_IsbL-0875_LatLon0.15_PT018H.grib2 2026-04-30 15:52 1.4M
20260430T12Z_MSC_GDPS_WindU_IsbL-0900_LatLon0.15_PT018H.grib2 2026-04-30 15:52 1.5M
20260430T12Z_MSC_GDPS_WindU_IsbL-0925_LatLon0.15_PT018H.grib2 2026-04-30 15:52 1.5M
20260430T12Z_MSC_GDPS_WindU_IsbL-0950_LatLon0.15_PT018H.grib2 2026-04-30 15:52 1.4M
20260430T12Z_MSC_GDPS_WindU_IsbL-0970_LatLon0.15_PT018H.grib2 2026-04-30 15:52 1.4M
20260430T12Z_MSC_GDPS_WindU_IsbL-0985_LatLon0.15_PT018H.grib2 2026-04-30 15:52 1.4M
20260430T12Z_MSC_GDPS_WindU_IsbL-1000_LatLon0.15_PT018H.grib2 2026-04-30 15:52 1.4M
20260430T12Z_MSC_GDPS_WindU_IsbL-1015_LatLon0.15_PT018H.grib2 2026-04-30 15:52 1.3M
20260430T12Z_MSC_GDPS_WindV_AGL-10m_LatLon0.15_PT018H.grib2 2026-04-30 15:52 1.6M
20260430T12Z_MSC_GDPS_WindV_AGL-120m_LatLon0.15_PT018H.grib2 2026-04-30 15:52 968K
20260430T12Z_MSC_GDPS_WindV_AGL-40m_LatLon0.15_PT018H.grib2 2026-04-30 15:52 962K
20260430T12Z_MSC_GDPS_WindV_AGL-80m_LatLon0.15_PT018H.grib2 2026-04-30 15:52 968K
20260430T12Z_MSC_GDPS_WindV_IsbL-0001_LatLon0.15_PT018H.grib2 2026-04-30 15:52 560K
20260430T12Z_MSC_GDPS_WindV_IsbL-0005_LatLon0.15_PT018H.grib2 2026-04-30 15:52 768K
20260430T12Z_MSC_GDPS_WindV_IsbL-0010_LatLon0.15_PT018H.grib2 2026-04-30 15:52 800K
20260430T12Z_MSC_GDPS_WindV_IsbL-0020_LatLon0.15_PT018H.grib2 2026-04-30 15:52 855K
20260430T12Z_MSC_GDPS_WindV_IsbL-0030_LatLon0.15_PT018H.grib2 2026-04-30 15:52 857K
20260430T12Z_MSC_GDPS_WindV_IsbL-0050_LatLon0.15_PT018H.grib2 2026-04-30 15:52 908K
20260430T12Z_MSC_GDPS_WindV_IsbL-0100_LatLon0.15_PT018H.grib2 2026-04-30 15:52 1.1M
20260430T12Z_MSC_GDPS_WindV_IsbL-0150_LatLon0.15_PT018H.grib2 2026-04-30 15:52 1.0M
20260430T12Z_MSC_GDPS_WindV_IsbL-0175_LatLon0.15_PT018H.grib2 2026-04-30 15:52 1.0M
20260430T12Z_MSC_GDPS_WindV_IsbL-0200_LatLon0.15_PT018H.grib2 2026-04-30 15:52 846K
20260430T12Z_MSC_GDPS_WindV_IsbL-0225_LatLon0.15_PT018H.grib2 2026-04-30 15:52 851K
20260430T12Z_MSC_GDPS_WindV_IsbL-0250_LatLon0.15_PT018H.grib2 2026-04-30 15:52 852K
20260430T12Z_MSC_GDPS_WindV_IsbL-0275_LatLon0.15_PT018H.grib2 2026-04-30 15:52 877K
20260430T12Z_MSC_GDPS_WindV_IsbL-0300_LatLon0.15_PT018H.grib2 2026-04-30 15:52 863K
20260430T12Z_MSC_GDPS_WindV_IsbL-0350_LatLon0.15_PT018H.grib2 2026-04-30 15:52 876K
20260430T12Z_MSC_GDPS_WindV_IsbL-0400_LatLon0.15_PT018H.grib2 2026-04-30 15:52 880K
20260430T12Z_MSC_GDPS_WindV_IsbL-0450_LatLon0.15_PT018H.grib2 2026-04-30 15:52 1.1M
20260430T12Z_MSC_GDPS_WindV_IsbL-0500_LatLon0.15_PT018H.grib2 2026-04-30 15:52 1.1M
20260430T12Z_MSC_GDPS_WindV_IsbL-0550_LatLon0.15_PT018H.grib2 2026-04-30 15:52 1.1M
20260430T12Z_MSC_GDPS_WindV_IsbL-0600_LatLon0.15_PT018H.grib2 2026-04-30 15:52 1.1M
20260430T12Z_MSC_GDPS_WindV_IsbL-0650_LatLon0.15_PT018H.grib2 2026-04-30 15:52 1.2M
20260430T12Z_MSC_GDPS_WindV_IsbL-0700_LatLon0.15_PT018H.grib2 2026-04-30 15:52 1.2M
20260430T12Z_MSC_GDPS_WindV_IsbL-0750_LatLon0.15_PT018H.grib2 2026-04-30 15:52 1.3M
20260430T12Z_MSC_GDPS_WindV_IsbL-0800_LatLon0.15_PT018H.grib2 2026-04-30 15:52 1.3M
20260430T12Z_MSC_GDPS_WindV_IsbL-0850_LatLon0.15_PT018H.grib2 2026-04-30 15:52 1.4M
20260430T12Z_MSC_GDPS_WindV_IsbL-0875_LatLon0.15_PT018H.grib2 2026-04-30 15:52 1.4M
20260430T12Z_MSC_GDPS_WindV_IsbL-0900_LatLon0.15_PT018H.grib2 2026-04-30 15:52 1.4M
20260430T12Z_MSC_GDPS_WindV_IsbL-0925_LatLon0.15_PT018H.grib2 2026-04-30 15:52 1.4M
20260430T12Z_MSC_GDPS_WindV_IsbL-0950_LatLon0.15_PT018H.grib2 2026-04-30 15:52 1.4M
20260430T12Z_MSC_GDPS_WindV_IsbL-0970_LatLon0.15_PT018H.grib2 2026-04-30 15:52 1.4M
20260430T12Z_MSC_GDPS_WindV_IsbL-0985_LatLon0.15_PT018H.grib2 2026-04-30 15:52 1.4M
20260430T12Z_MSC_GDPS_WindV_IsbL-1000_LatLon0.15_PT018H.grib2 2026-04-30 15:52 1.7M
20260430T12Z_MSC_GDPS_WindV_IsbL-1015_LatLon0.15_PT018H.grib2 2026-04-30 15:52 1.6M